timestamp,wind_dir_avg,wind_spd_avg,wind_spd_max_dir,wind_spd_gust,battery_voltage,lat,long
2023-06-25 00:04:00+00:00,215.0,7.32,212.0,8.26,13.05,47.59359,-54.27349
2023-06-25 00:14:00+00:00,220.0,8.21,218.0,9.36,12.49,47.59359,-54.27349
2023-06-25 00:24:00+00:00,214.0,8.99,213.0,10.44,12.49,47.59359,-54.27349
2023-06-25 00:34:00+00:00,213.0,7.94,210.0,8.96,12.49,47.59359,-54.27349
2023-06-25 00:44:00+00:00,214.0,7.45,217.0,8.42,12.49,47.59359,-54.27349
2023-06-25 00:54:00+00:00,214.0,7.27,214.0,7.97,12.49,47.59359,-54.27349
2023-06-25 01:04:00+00:00,214.0,7.24,216.0,8.07,12.49,47.59359,-54.27349
2023-06-25 01:14:01+00:00,214.0,7.27,213.0,8.09,12.41,47.59359,-54.27349
2023-06-25 01:24:01+00:00,218.0,7.42,217.0,8.07,12.41,47.59359,-54.27349
2023-06-25 01:34:01+00:00,219.0,7.08,222.0,7.82,12.41,47.59359,-54.27349
2023-06-25 01:44:01+00:00,218.0,7.11,220.0,8.01,12.41,47.59359,-54.27349
2023-06-25 01:54:01+00:00,214.0,6.52,213.0,7.01,12.41,47.59359,-54.27349
2023-06-25 02:04:01+00:00,216.0,6.29,217.0,6.94,12.41,47.59359,-54.27349
2023-06-25 02:14:01+00:00,223.0,5.94,223.0,7.14,12.33,47.59359,-54.27349
2023-06-25 02:24:01+00:00,222.0,6.7,218.0,7.47,12.33,47.59359,-54.27349
2023-06-25 02:34:01+00:00,221.0,6.73,216.0,7.5,12.33,47.59359,-54.27349
2023-06-25 02:44:01+00:00,219.0,6.41,218.0,7.28,12.33,47.59359,-54.27349
2023-06-25 02:54:01+00:00,213.0,5.91,213.0,6.53,12.33,47.59359,-54.27349
2023-06-25 03:04:01+00:00,214.0,6.0,214.0,6.84,12.33,47.59359,-54.27349
2023-06-25 03:14:01+00:00,214.0,5.48,218.0,6.44,12.25,47.59359,-54.27349
2023-06-25 03:24:01+00:00,218.0,6.94,217.0,7.6,12.25,47.59359,-54.27349
2023-06-25 03:34:01+00:00,219.0,7.53,220.0,8.3,12.25,47.59359,-54.27349
2023-06-25 03:44:01+00:00,218.0,6.91,217.0,7.76,12.25,47.59359,-54.27349
2023-06-25 03:54:01+00:00,217.0,6.36,216.0,7.19,12.25,47.59359,-54.27349
2023-06-25 04:04:01+00:00,219.0,6.3,222.0,7.11,12.25,47.59359,-54.27349
2023-06-25 04:14:01+00:00,219.0,7.16,221.0,8.0,12.25,47.59359,-54.27349
2023-06-25 04:24:01+00:00,219.0,7.32,218.0,8.01,12.25,47.59359,-54.27349
2023-06-25 04:34:01+00:00,218.0,7.72,218.0,8.36,12.25,47.59359,-54.27349
2023-06-25 04:44:01+00:00,212.0,7.23,214.0,7.93,12.25,47.59359,-54.27349
2023-06-25 04:54:01+00:00,219.0,7.96,218.0,8.9,12.25,47.59359,-54.27349
2023-06-25 05:04:01+00:00,221.0,7.53,224.0,8.5,12.25,47.59359,-54.27349
2023-06-25 05:14:00+00:00,220.0,8.6,219.0,9.58,12.25,47.59359,-54.27349
2023-06-25 05:24:00+00:00,217.0,7.78,218.0,8.61,12.25,47.59359,-54.27349
2023-06-25 05:34:00+00:00,220.0,8.33,219.0,9.6,12.25,47.59359,-54.27349
2023-06-25 05:44:00+00:00,215.0,7.5,209.0,9.72,12.25,47.59359,-54.27349
2023-06-25 05:54:00+00:00,214.0,6.86,215.0,7.6,12.25,47.59359,-54.27349
2023-06-25 06:04:00+00:00,213.0,6.98,216.0,7.76,12.25,47.59359,-54.27349
2023-06-25 06:14:00+00:00,215.0,5.85,218.0,6.49,12.25,47.59359,-54.27349
2023-06-25 06:24:00+00:00,211.0,6.79,208.0,7.54,12.25,47.59359,-54.27349
2023-06-25 06:34:00+00:00,215.0,6.16,216.0,6.91,12.25,47.59359,-54.27349
2023-06-25 06:44:00+00:00,210.0,6.47,208.0,7.19,12.25,47.59359,-54.27349
2023-06-25 06:54:00+00:00,214.0,6.57,215.0,7.02,12.25,47.59359,-54.27349
2023-06-25 07:04:00+00:00,218.0,6.35,219.0,7.1,12.25,47.59359,-54.27349
2023-06-25 07:14:00+00:00,216.0,5.91,216.0,6.68,12.17,47.59359,-54.27349
2023-06-25 07:24:00+00:00,215.0,6.27,216.0,6.89,12.17,47.59359,-54.27349
2023-06-25 07:34:00+00:00,206.0,5.21,207.0,5.81,12.17,47.59359,-54.27349
2023-06-25 07:44:00+00:00,213.0,5.82,215.0,6.49,12.17,47.59359,-54.27349
2023-06-25 07:54:00+00:00,222.0,6.27,223.0,6.78,12.17,47.59359,-54.27349
2023-06-25 08:04:00+00:00,225.0,5.86,227.0,6.52,12.17,47.59359,-54.27349
2023-06-25 08:14:01+00:00,225.0,6.47,223.0,7.2,12.25,47.59359,-54.27349
2023-06-25 08:24:01+00:00,229.0,6.76,220.0,7.88,12.25,47.59359,-54.27349
2023-06-25 08:34:01+00:00,227.0,5.97,229.0,6.85,12.25,47.59359,-54.27349
2023-06-25 08:44:01+00:00,227.0,7.31,227.0,8.31,12.25,47.59359,-54.27349
2023-06-25 08:54:01+00:00,227.0,7.84,229.0,8.65,12.25,47.59359,-54.27349
2023-06-25 09:04:01+00:00,225.0,7.2,224.0,8.32,12.25,47.59359,-54.27349
2023-06-25 09:14:00+00:00,222.0,7.11,218.0,8.13,12.49,47.59359,-54.27349
2023-06-25 09:24:00+00:00,221.0,7.36,220.0,8.12,12.49,47.59359,-54.27349
2023-06-25 09:34:00+00:00,217.0,6.37,219.0,6.75,12.49,47.59359,-54.27349
2023-06-25 09:44:00+00:00,218.0,6.47,218.0,7.07,12.49,47.59359,-54.27349
2023-06-25 09:54:00+00:00,217.0,6.91,218.0,7.78,12.49,47.59359,-54.27349
2023-06-25 10:04:00+00:00,215.0,6.48,213.0,7.12,12.49,47.59359,-54.27349
2023-06-25 10:14:00+00:00,207.0,5.99,209.0,6.61,13.21,47.59359,-54.27349
2023-06-25 10:24:00+00:00,217.0,5.56,221.0,6.32,13.21,47.59359,-54.27349
2023-06-25 10:34:00+00:00,220.0,7.01,219.0,7.96,13.21,47.59359,-54.27349
2023-06-25 10:44:00+00:00,217.0,6.7,214.0,7.59,13.21,47.59359,-54.27349
2023-06-25 10:54:00+00:00,215.0,6.0,216.0,6.4,13.21,47.59359,-54.27349
2023-06-25 11:04:00+00:00,217.0,6.16,215.0,6.95,13.21,47.59359,-54.27349
2023-06-25 11:14:00+00:00,215.0,6.88,216.0,7.85,13.6,47.59359,-54.27349
2023-06-25 11:24:00+00:00,218.0,6.9,214.0,8.19,13.6,47.59359,-54.27349
2023-06-25 11:34:00+00:00,205.0,6.64,210.0,7.43,13.6,47.59359,-54.27349
2023-06-25 11:44:00+00:00,200.0,6.59,208.0,7.64,13.6,47.59359,-54.27349
2023-06-25 11:54:00+00:00,203.0,7.58,198.0,8.11,13.6,47.59359,-54.27349
2023-06-25 12:04:00+00:00,213.0,6.88,211.0,7.82,13.6,47.59359,-54.27349
2023-06-25 12:14:00+00:00,208.0,6.4,208.0,7.13,13.6,47.59359,-54.27349
2023-06-25 12:24:00+00:00,218.0,7.24,219.0,8.54,13.6,47.59359,-54.27349
2023-06-25 12:34:00+00:00,223.0,7.96,221.0,9.77,13.6,47.59359,-54.27349
2023-06-25 12:44:00+00:00,231.0,6.35,230.0,7.14,13.6,47.59359,-54.27349
2023-06-25 12:54:00+00:00,225.0,6.51,227.0,7.14,13.6,47.59359,-54.27349
2023-06-25 13:04:00+00:00,220.0,9.31,221.0,10.6,13.6,47.59359,-54.27349
2023-06-25 13:14:00+00:00,221.0,9.78,223.0,11.39,13.53,47.59359,-54.27349
2023-06-25 13:24:00+00:00,227.0,7.24,232.0,8.42,13.53,47.59359,-54.27349
2023-06-25 13:34:00+00:00,215.0,6.93,216.0,7.7,13.53,47.59359,-54.27349
2023-06-25 13:44:00+00:00,214.0,7.47,212.0,8.57,13.53,47.59359,-54.27349
2023-06-25 13:54:00+00:00,208.0,7.79,214.0,8.3,13.53,47.59359,-54.27349
2023-06-25 14:04:00+00:00,209.0,6.28,207.0,7.36,13.53,47.59359,-54.27349
2023-06-25 14:14:00+00:00,209.0,7.5,214.0,8.58,13.68,47.59359,-54.27349
2023-06-25 14:24:00+00:00,205.0,7.56,207.0,9.1,13.68,47.59359,-54.27349
2023-06-25 14:34:00+00:00,212.0,8.41,216.0,9.57,13.68,47.59359,-54.27349
2023-06-25 14:44:00+00:00,213.0,8.59,219.0,10.03,13.68,47.59359,-54.27349
2023-06-25 14:54:00+00:00,208.0,10.44,210.0,11.98,13.68,47.59359,-54.27349
2023-06-25 15:04:00+00:00,211.0,9.37,208.0,10.57,13.68,47.59359,-54.27349
2023-06-25 15:14:00+00:00,209.0,11.54,205.0,13.73,13.76,47.59359,-54.27349
2023-06-25 15:24:00+00:00,209.0,9.88,210.0,10.94,13.76,47.59359,-54.27349
2023-06-25 15:34:00+00:00,213.0,13.06,221.0,15.2,13.76,47.59359,-54.27349
2023-06-25 15:44:00+00:00,210.0,10.19,211.0,12.65,13.76,47.59359,-54.27349
2023-06-25 15:54:00+00:00,211.0,10.94,208.0,12.17,13.76,47.59359,-54.27349
2023-06-25 16:04:00+00:00,214.0,10.92,211.0,12.05,13.76,47.59359,-54.27349
2023-06-25 16:14:00+00:00,212.0,9.86,211.0,11.42,13.68,47.59359,-54.27349
2023-06-25 16:24:00+00:00,210.0,10.44,212.0,11.55,13.68,47.59359,-54.27349
2023-06-25 16:34:00+00:00,212.0,9.68,214.0,11.25,13.68,47.59359,-54.27349
2023-06-25 16:44:00+00:00,211.0,9.61,210.0,11.05,13.68,47.59359,-54.27349
2023-06-25 16:54:00+00:00,213.0,9.87,211.0,11.26,13.68,47.59359,-54.27349
2023-06-25 17:04:00+00:00,214.0,9.59,216.0,11.19,13.68,47.59359,-54.27349
2023-06-25 17:14:00+00:00,212.0,11.15,214.0,12.41,13.68,47.59359,-54.27349
2023-06-25 17:24:00+00:00,211.0,11.39,209.0,12.63,13.68,47.59359,-54.27349
2023-06-25 17:34:00+00:00,212.0,11.53,216.0,14.05,13.68,47.59359,-54.27349
2023-06-25 17:44:00+00:00,213.0,12.27,216.0,13.89,13.68,47.59359,-54.27349
2023-06-25 17:54:00+00:00,213.0,11.32,218.0,13.4,13.68,47.59359,-54.27349
2023-06-25 18:04:00+00:00,210.0,10.47,208.0,11.75,13.68,47.59359,-54.27349
2023-06-25 18:14:00+00:00,211.0,10.51,215.0,11.7,13.68,47.59359,-54.27349
2023-06-25 18:24:00+00:00,214.0,9.48,214.0,10.56,13.68,47.59359,-54.27349
2023-06-25 18:34:00+00:00,211.0,9.7,210.0,10.99,13.68,47.59359,-54.27349
2023-06-25 18:44:00+00:00,212.0,9.86,210.0,10.7,13.68,47.59359,-54.27349
2023-06-25 18:54:00+00:00,210.0,10.5,212.0,11.4,13.68,47.59359,-54.27349
2023-06-25 19:04:00+00:00,210.0,10.36,214.0,12.11,13.68,47.59359,-54.27349
2023-06-25 19:14:00+00:00,209.0,11.27,210.0,12.61,13.6,47.59359,-54.27349
2023-06-25 19:24:00+00:00,210.0,10.57,207.0,11.68,13.6,47.59359,-54.27349
2023-06-25 19:34:00+00:00,211.0,9.33,209.0,10.32,13.6,47.59359,-54.27349
2023-06-25 19:44:00+00:00,210.0,10.04,211.0,11.16,13.6,47.59359,-54.27349
2023-06-25 19:54:00+00:00,212.0,9.43,213.0,10.09,13.6,47.59359,-54.27349
2023-06-25 20:04:00+00:00,211.0,9.57,211.0,10.77,13.6,47.59359,-54.27349
2023-06-25 20:14:00+00:00,212.0,8.87,212.0,9.61,13.6,47.59359,-54.27349
2023-06-25 20:24:00+00:00,219.0,8.22,217.0,9.52,13.6,47.59359,-54.27349
2023-06-25 20:34:00+00:00,221.0,9.26,222.0,10.16,13.6,47.59359,-54.27349
2023-06-25 20:44:00+00:00,223.0,9.35,225.0,10.26,13.6,47.59359,-54.27349
2023-06-25 20:54:00+00:00,223.0,8.82,231.0,11.3,13.6,47.59359,-54.27349
2023-06-25 21:04:00+00:00,230.0,8.53,234.0,10.81,13.6,47.59359,-54.27349
2023-06-25 21:14:00+00:00,226.0,8.23,241.0,10.95,13.44,47.59359,-54.27349
2023-06-25 21:24:00+00:00,217.0,8.18,223.0,9.73,13.44,47.59359,-54.27349
2023-06-25 21:34:00+00:00,218.0,7.6,217.0,8.53,13.44,47.59359,-54.27349
2023-06-25 21:44:00+00:00,214.0,7.46,213.0,8.0,13.44,47.59359,-54.27349
2023-06-25 21:54:00+00:00,222.0,5.59,221.0,6.36,13.44,47.59359,-54.27349
2023-06-25 22:04:00+00:00,251.0,7.96,252.0,8.78,13.44,47.59359,-54.27349
2023-06-25 22:14:00+00:00,250.0,8.4,256.0,10.56,12.81,47.59359,-54.27349
2023-06-25 22:24:00+00:00,265.0,4.39,269.0,5.18,12.81,47.59359,-54.27349
2023-06-25 22:34:00+00:00,273.0,2.54,273.0,2.66,12.81,47.59359,-54.27349
2023-06-25 22:44:00+00:00,283.0,3.4,289.0,3.87,12.81,47.59359,-54.27349
2023-06-25 22:54:00+00:00,286.0,5.37,286.0,5.6,12.81,47.59359,-54.27349
2023-06-25 23:04:00+00:00,286.0,6.92,285.0,7.81,12.81,47.59359,-54.27349
2023-06-25 23:14:01+00:00,295.0,8.78,297.0,9.57,12.49,47.59359,-54.27349
2023-06-25 23:24:01+00:00,301.0,6.94,302.0,7.63,12.49,47.59359,-54.27349
2023-06-25 23:34:01+00:00,307.0,4.39,306.0,5.16,12.49,47.59359,-54.27349
2023-06-25 23:44:01+00:00,323.0,3.5,322.0,3.81,12.49,47.59359,-54.27349
2023-06-25 23:54:01+00:00,314.0,4.94,314.0,5.48,12.49,47.59359,-54.27349
